QPF
0.00 0.00 0.00 0.00 0.00 0.00 0.00 0.00 0.00 0.00 0.00 0.01 0.01 0.00 0.00 0.00 0.00 0.00 0.00 0.00 0.00 0.00 0.00 0.00 0.00 0.00 0.00 0.00 0.00 0.00 0.00 0.00 0.00 0.00 0.00 0.00 0.00 0.00 0.00 0.00 0.00 0.00 0.00
0.00 0.00 0.00 0.00 0.00 0.00 0.00 0.00 0.00 0.00 0.01 0.03 0.00 0.01 0.00 0.00 0.00 0.00 0.00 0.00 0.00 0.00 0.00 0.00 0.00 0.00 0.00 0.00 0.00 0.00 0.00 0.00 0.00 0.00 0.00 0.00 0.00 0.00 0.00 0.00 0.00 0.00 0.00
0.00 0.00 0.00 0.00 0.00 0.00 0.00 0.00 0.00 0.00 0.01 0.01 0.00 0.01 0.02 0.00 0.00 0.00 0.00 0.00 0.00 0.00 0.00 0.00 0.00 0.00 0.00 0.00 0.00 0.00 0.00 0.00 0.00 0.00 0.00 0.00 0.00 0.00 0.00 0.00 0.00 0.00 0.00
0.00 0.00 0.00 0.00 0.00 0.00 0.00 0.00 0.00 0.00 0.01 0.00 0.00 0.01 0.01 0.00 0.00 0.00 0.00 0.00 0.00 0.00 0.00 0.00 0.00 0.00 0.00 0.00 0.00 0.00 0.00 0.00 0.00 0.00 0.00 0.00 0.00 0.00 0.00 0.00 0.00 0.00 0.00
0.00 0.00 0.00 0.00 0.00 0.00 0.00 0.00 0.00 0.00 0.00 0.00 0.00 0.01 0.00 0.00 0.00 0.00 0.00 0.00 0.00 0.00 0.00 0.00 0.00 0.00 0.00 0.00 0.00 0.00 0.00 0.00 0.00 0.00 0.00 0.00 0.00 0.00 0.00 0.00 0.00 0.00 0.00
0.00 0.00 0.00 0.00 0.00 0.00 0.00 0.00 0.00 0.00 0.00 0.00 0.01 0.01 0.00 0.00 0.00 0.00 0.00 0.00 0.00 0.00 0.00 0.00 0.00 0.00 0.00 0.00 0.00 0.00 0.00 0.00 0.00 0.00 0.00 0.00 0.00 0.00 0.00 0.00 0.00 0.00 0.00
0.00 0.00 0.00 0.00 0.00 0.00 0.00 0.00 0.00 0.00 0.00 0.01 0.01 0.01 0.01 0.00 0.00 0.00 0.00 0.00 0.00 0.00 0.00 0.00 0.00 0.00 0.00 0.00 0.00 0.00 0.00 0.00 0.00 0.00 0.00 0.00 0.00 0.00 0.00 0.00 0.00 0.00 0.00
0.00 0.00 0.00 0.00 0.00 0.00 0.00 0.00 0.00 0.00 0.00 0.00 0.01 0.01 0.01 0.00 0.00 0.00 0.00 0.00 0.00 0.00 0.00 0.00 0.00 0.00 0.00 0.00 0.00 0.00 0.00 0.00 0.00 0.00 0.00 0.00 0.00 0.00 0.00 0.00 0.00 0.00 0.00
0.00 0.00 0.00 0.00 0.00 0.00 0.00 0.00 0.00 0.00 0.00 0.00 0.00 0.00 0.00 0.00 0.00 0.00 0.00 0.00 0.00 0.00 0.00 0.00 0.00 0.00 0.00 0.00 0.00 0.00 0.00 0.00 0.00 0.00 0.00 0.00 0.00 0.00 0.00 0.00 0.00 0.00 0.01
0.00 0.00 0.00 0.00 0.00 0.00 0.00 0.00 0.00 0.00 0.00 0.00 0.00 0.00 0.00 0.00 0.00 0.00 0.00 0.00 0.00 0.00 0.00 0.00 0.00 0.00 0.00 0.00 0.00 0.00 0.00 0.00 0.00 0.00 0.00 0.00 0.00 0.00 0.00 0.00 0.00 0.00 0.02
0.00 0.00 0.00 0.00 0.00 0.00 0.00 0.00 0.00 0.00 0.00 0.00 0.00 0.00 0.00 0.00 0.00 0.00 0.00 0.00 0.00 0.00 0.00 0.00 0.00 0.00 0.00 0.00 0.00 0.00 0.00 0.00 0.00 0.00 0.00 0.00 0.00 0.00 0.00 0.00 0.00 0.00 0.00
0.00 0.00 0.00 0.00 0.00 0.00 0.00 0.00 0.00 0.00 0.00 0.00 0.00 0.00 0.00 0.00 0.00 0.00 0.00 0.00 0.00 0.00 0.00 0.00 0.00 0.00 0.00 0.00 0.00 0.00 0.00 0.00 0.00 0.00 0.00 0.00 0.00 0.00 0.00 0.00 0.00 0.00 0.00
0.00 0.00 0.00 0.00 0.00 0.00 0.00 0.00 0.00 0.00 0.00 0.00 0.00 0.00 0.00 0.00 0.00 0.00 0.00 0.00 0.00 0.00 0.00 0.00 0.00 0.00 0.00 0.00 0.00 0.00 0.00 0.00 0.00 0.00 0.00 0.00 0.00 0.00 0.00 0.00 0.00 0.00 0.00
0.00 0.00 0.00 0.00 0.00 0.00 0.00 0.00 0.00 0.00 0.00 0.00 0.00 0.00 0.00 0.00 0.00 0.00 0.00 0.00 0.00 0.00 0.00 0.00 0.00 0.00 0.00 0.00 0.00 0.00 0.00 0.00 0.00 0.00 0.00 0.00 0.00 0.00 0.00 0.00 0.00 0.00 0.00
0.00 0.00 0.00 0.00 0.00 0.00 0.00 0.00 0.00 0.00 0.00 0.00 0.00 0.00 0.00 0.00 0.00 0.00 0.00 0.00 0.00 0.00 0.00 0.00 0.00 0.00 0.00 0.00 0.00 0.00 0.00 0.00 0.00 0.00 0.00 0.00 0.00 0.00 0.00 0.00 0.00 0.00 0.01
0.00 0.00 0.00 0.00 0.00 0.00 0.00 0.00 0.00 0.00 0.00 0.00 0.00 0.00 0.00 0.00 0.00 0.00 0.00 0.00 0.00 0.00 0.00 0.00 0.00 0.00 0.00 0.00 0.00 0.00 0.00 0.00 0.00 0.00 0.00 0.00 0.00 0.00 0.00 0.00 0.00 0.00 0.00
0.00 0.00 0.00 0.00 0.00 0.00 0.00 0.00 0.00 0.00 0.00 0.00 0.00 0.00 0.00 0.00 0.00 0.00 0.00 0.00 0.00 0.00 0.00 0.00 0.00 0.00 0.00 0.00 0.00 0.00 0.00 0.00 0.00 0.00 0.00 0.00 0.00 0.00 0.00 0.00 0.00 0.00 0.00
0.00 0.00 0.00 0.00 0.00 0.00 0.00 0.00 0.00 0.00 0.00 0.00 0.00 0.00 0.00 0.00 0.00 0.00 0.00 0.00 0.00 0.00 0.00 0.00 0.00 0.00 0.00 0.00 0.00 0.00 0.00 0.00 0.00 0.00 0.00 0.00 0.00 0.00 0.00 0.00 0.00 0.00 0.00
0.00 0.00 0.00 0.00 0.00 0.00 0.00 0.00 0.00 0.00 0.00 0.00 0.00 0.00 0.00 0.00 0.00 0.00 0.00 0.00 0.00 0.00 0.00 0.00 0.00 0.00 0.00 0.00 0.00 0.00 0.00 0.00 0.00 0.00 0.00 0.00 0.00 0.00 0.00 0.00 0.00 0.00 0.00
0.00 0.00 0.00 0.00 0.00 0.00 0.00 0.00 0.00 0.00 0.00 0.00 0.00 0.00 0.00 0.00 0.00 0.00 0.00 0.00 0.00 0.00 0.00 0.00 0.00 0.00 0.00 0.00 0.00 0.00 0.00 0.00 0.00 0.00 0.00 0.00 0.00 0.00 0.00 0.00 0.00 0.00 0.00
0.00 0.00 0.00 0.00 0.00 0.00 0.00 0.00 0.00 0.00 0.00 0.00 0.00 0.00 0.00 0.00 0.00 0.00 0.00 0.00 0.00 0.00 0.00 0.00 0.00 0.00 0.00 0.00 0.00 0.00 0.00 0.00 0.00 0.00 0.00 0.00 0.00 0.00 0.00 0.00 0.00 0.00 0.00
0.00 0.00 0.00 0.00 0.00 0.00 0.00 0.00 0.00 0.00 0.00 0.00 0.00 0.00 0.00 0.00 0.00 0.00 0.00 0.00 0.00 0.00 0.00 0.00 0.00 0.00 0.00 0.00 0.00 0.00 0.00 0.00 0.00 0.00 0.00 0.00 0.00 0.00 0.00 0.00 0.00 0.00 0.00
0.00 0.00 0.00 0.00 0.00 0.00 0.00 0.00 0.00 0.00 0.00 0.00 0.00 0.00 0.00 0.00 0.00 0.00 0.00 0.00 0.00 0.00 0.00 0.00 0.00 0.00 0.00 0.00 0.00 0.00 0.00 0.00 0.00 0.00 0.00 0.00 0.00 0.00 0.00 0.00 0.00 0.00 0.00
0.00 0.00 0.00 0.00 0.00 0.00 0.00 0.00 0.00 0.00 0.00 0.00 0.00 0.00 0.00 0.00 0.00 0.00 0.00 0.00 0.00 0.00 0.00 0.00 0.00 0.00 0.00 0.00 0.00 0.00 0.00 0.00 0.00 0.00 0.00 0.00 0.00 0.00 0.00 0.00 0.00 0.00 0.00
0.00 0.00 0.00 0.00 0.00 0.00 0.00 0.00 0.00 0.00 0.00 0.00 0.00 0.00 0.00 0.00 0.00 0.00 0.00 0.00 0.00 0.00 0.00 0.00 0.00 0.00 0.00 0.00 0.00 0.00 0.00 0.00 0.00 0.00 0.00 0.00 0.00 0.00 0.00 0.00 0.00 0.00 0.00
0.00 0.00 0.00 0.00 0.00 0.00 0.00 0.00 0.00 0.00 0.00 0.00 0.00 0.00 0.00 0.00 0.00 0.00 0.00 0.00 0.00 0.00 0.00 0.00 0.00 0.00 0.00 0.00 0.00 0.00 0.00 0.00 0.00 0.00 0.00 0.00 0.00 0.01 0.00 0.00 0.00 0.00 0.00
MSLP
1000.97 1001.50 1002.52 1003.60 1004.88 1005.33 1006.52 1007.89 1008.92 1009.94 1010.96 1011.87 1012.51 1012.95 1013.37 1014.05 1014.63 1015.15 1015.68 1015.83 1016.15 1016.33 1016.29 1016.23 1016.61 1016.71 1016.85 1017.32 1017.54 1017.62 1017.43 1017.23 1017.31 1017.34 1016.73 1016.33 1015.62 1015.38 1015.25 1015.24 1015.52 1015.54 1014.96
1000.69 1001.35 1001.92 1003.60 1004.86 1005.15 1006.35 1007.47 1008.36 1009.76 1010.89 1011.38 1012.03 1012.49 1012.90 1013.64 1014.15 1014.76 1015.30 1015.65 1016.13 1016.28 1016.37 1016.55 1016.77 1017.04 1017.07 1017.66 1018.04 1018.17 1017.89 1017.47 1017.58 1017.64 1017.46 1016.49 1015.96 1015.38 1015.91 1015.98 1015.70 1015.83 1015.68
999.52 1000.35 1001.52 1003.01 1004.60 1005.14 1005.96 1006.81 1007.81 1009.49 1010.77 1011.22 1011.58 1012.65 1013.14 1013.42 1014.14 1014.87 1015.36 1015.81 1016.26 1016.56 1016.77 1016.90 1017.05 1017.40 1017.39 1017.70 1018.22 1018.35 1018.14 1017.87 1017.85 1017.84 1017.84 1017.10 1016.76 1016.69 1016.47 1016.25 1015.93 1015.87 1015.92
998.70 999.24 1000.26 1001.82 1003.76 1004.74 1005.60 1006.96 1007.74 1009.10 1009.93 1010.73 1011.26 1011.95 1012.40 1012.91 1013.64 1014.40 1014.91 1015.69 1016.26 1016.72 1017.09 1017.26 1017.45 1017.68 1017.71 1018.13 1018.17 1018.28 1018.61 1018.42 1018.14 1017.99 1017.79 1017.91 1017.82 1017.32 1016.59 1016.56 1016.20 1016.00 1015.77
997.99 998.36 999.09 1000.63 1002.81 1004.33 1005.11 1006.89 1007.77 1008.52 1009.18 1009.99 1010.73 1011.45 1012.04 1012.67 1013.38 1014.05 1015.10 1015.52 1016.16 1016.69 1016.98 1017.26 1017.61 1017.88 1017.83 1018.26 1018.50 1018.65 1018.72 1018.60 1018.42 1018.23 1018.17 1018.00 1017.72 1017.38 1017.15 1016.30 1016.10 1016.05 1015.78
997.43 997.74 998.28 999.67 1001.57 1003.65 1004.87 1006.03 1007.37 1007.92 1008.71 1009.73 1010.22 1010.98 1011.39 1012.04 1013.04 1013.93 1014.71 1015.36 1015.97 1016.50 1016.90 1017.25 1017.53 1017.90 1018.11 1018.31 1018.55 1018.65 1018.68 1018.73 1018.81 1018.68 1018.40 1018.06 1017.77 1017.56 1017.37 1016.78 1016.31 1015.88 1015.36
996.62 997.35 997.99 998.93 1000.85 1002.78 1004.70 1006.23 1007.16 1007.72 1008.66 1009.50 1010.26 1010.82 1011.28 1012.17 1012.90 1013.68 1014.17 1014.81 1015.44 1016.03 1016.81 1017.22 1017.69 1017.80 1018.07 1018.43 1018.56 1018.62 1018.79 1018.91 1018.76 1018.69 1018.52 1018.26 1018.00 1017.77 1017.48 1016.98 1016.19 1015.56 1015.11
995.90 997.01 997.84 998.68 1000.41 1002.43 1004.48 1006.24 1007.36 1007.89 1009.02 1009.92 1010.66 1011.29 1011.72 1012.36 1012.79 1013.34 1013.80 1014.63 1015.28 1015.96 1016.79 1017.35 1017.75 1018.03 1018.33 1018.57 1018.61 1018.73 1018.83 1018.81 1018.76 1018.73 1018.64 1018.37 1018.13 1017.89 1017.50 1017.05 1016.46 1015.43 1014.92
995.28 996.32 997.63 998.61 1000.08 1002.29 1004.45 1006.23 1007.61 1008.59 1009.30 1009.92 1010.66 1011.13 1011.96 1012.22 1012.67 1013.38 1014.24 1014.89 1015.50 1016.35 1017.06 1017.51 1017.85 1018.14 1018.43 1018.58 1018.68 1018.90 1018.84 1018.85 1018.89 1018.78 1018.59 1018.32 1018.00 1017.84 1017.43 1017.07 1016.74 1016.25 1015.32
995.05 995.84 997.40 998.56 1000.18 1002.54 1004.72 1006.37 1007.73 1008.23 1008.95 1009.73 1010.46 1011.08 1011.64 1012.26 1013.16 1013.90 1014.51 1015.29 1015.90 1016.44 1017.13 1017.59 1017.99 1018.29 1018.50 1018.64 1018.88 1019.02 1018.88 1018.85 1018.87 1018.70 1018.50 1018.50 1018.20 1017.76 1017.49 1017.18 1016.71 1016.28 1016.08
994.86 995.95 997.55 998.66 1000.62 1002.64 1004.60 1006.35 1007.16 1007.73 1008.59 1009.49 1010.21 1011.07 1011.80 1012.65 1013.44 1014.16 1014.95 1015.50 1016.12 1016.68 1017.25 1017.69 1018.01 1018.29 1018.54 1018.83 1019.15 1019.10 1019.02 1018.93 1018.88 1018.83 1018.71 1018.47 1018.35 1017.83 1017.39 1017.08 1016.87 1017.08 1016.98
994.76 996.25 997.79 998.86 1000.14 1002.26 1004.18 1005.92 1006.82 1007.32 1008.28 1009.28 1010.33 1011.12 1012.11 1012.66 1013.39 1014.27 1014.99 1015.70 1016.25 1016.96 1017.41 1017.73 1018.05 1018.29 1018.60 1018.98 1019.17 1019.17 1019.17 1019.06 1018.97 1018.94 1018.81 1018.55 1018.23 1017.91 1017.54 1017.18 1016.67 1016.80 1016.80
995.08 996.57 998.04 999.16 1000.13 1001.43 1003.44 1005.06 1006.43 1007.04 1007.87 1009.05 1010.13 1011.15 1011.96 1012.40 1013.32 1014.32 1015.24 1015.91 1016.40 1016.94 1017.43 1017.81 1018.08 1018.39 1018.82 1019.17 1019.38 1019.39 1019.40 1019.39 1019.28 1019.16 1018.91 1018.62 1018.27 1017.89 1017.59 1017.41 1017.53 1017.55 1017.00
995.47 996.62 997.92 999.18 1000.56 1001.57 1002.65 1004.13 1005.75 1006.64 1007.44 1008.73 1009.93 1010.98 1011.60 1012.33 1013.52 1014.59 1015.36 1015.97 1016.49 1016.97 1017.41 1017.80 1018.18 1018.63 1019.05 1019.32 1019.57 1019.67 1019.84 1019.81 1019.49 1019.29 1019.07 1018.86 1018.65 1018.43 1018.85 1018.56 1018.31 1017.88 1017.40
995.57 996.45 997.51 998.82 1000.10 1001.33 1002.00 1003.44 1004.89 1005.95 1006.98 1008.27 1009.62 1010.68 1011.65 1012.70 1013.81 1014.76 1015.41 1016.01 1016.49 1016.91 1017.39 1017.88 1018.30 1018.77 1019.18 1019.51 1020.29 1020.36 1020.23 1019.93 1019.64 1019.56 1019.62 1019.43 1019.30 1019.48 1019.54 1019.24 1018.78 1018.59 1018.04
995.18 996.09 997.15 998.39 999.61 1000.65 1001.49 1002.71 1004.09 1005.29 1006.65 1008.06 1009.31 1010.66 1011.88 1012.95 1013.86 1014.73 1015.37 1015.92 1016.41 1016.98 1017.59 1017.96 1018.41 1018.78 1019.12 1020.46 1020.87 1020.89 1020.53 1019.98 1019.73 1019.78 1019.94 1019.84 1019.67 1019.24 1019.15 1019.17 1019.09 1019.05 1018.41
994.28 995.14 996.13 997.34 998.88 999.95 1001.15 1002.21 1003.76 1005.30 1006.55 1007.81 1009.25 1010.67 1011.82 1012.75 1013.76 1014.49 1015.24 1015.78 1016.39 1016.97 1017.49 1017.92 1018.29 1018.56 1019.80 1020.49 1020.83 1020.90 1020.32 1019.81 1019.79 1019.89 1019.72 1019.64 1019.58 1019.45 1019.14 1018.81 1018.51 1018.28 1017.95
993.49 994.31 995.25 996.39 998.04 999.47 1000.88 1002.26 1003.70 1005.29 1006.52 1007.79 1009.27 1010.52 1011.58 1012.58 1013.42 1014.37 1015.12 1015.87 1016.48 1016.97 1017.21 1017.79 1018.71 1019.18 1019.52 1020.26 1020.68 1020.58 1019.96 1019.58 1019.54 1019.52 1019.64 1019.45 1019.09 1019.01 1018.82 1018.44 1017.92 1017.57 1017.09
992.20 993.01 994.33 995.55 997.37 998.77 1000.48 1001.84 1003.54 1005.28 1006.75 1008.01 1009.31 1010.35 1011.42 1012.51 1013.62 1014.39 1015.15 1015.85 1016.27 1017.10 1017.57 1018.02 1018.45 1018.73 1019.01 1019.84 1020.25 1020.11 1019.63 1019.38 1019.50 1019.38 1019.30 1019.45 1018.98 1018.84 1018.70 1018.18 1017.64 1016.89 1016.18
990.84 992.16 993.82 995.46 996.87 998.23 1000.03 1001.75 1003.48 1005.18 1006.71 1008.47 1009.38 1010.34 1011.51 1012.70 1013.65 1014.49 1015.21 1015.87 1016.36 1016.84 1017.43 1017.65 1018.02 1018.77 1018.64 1019.71 1019.98 1019.86 1019.74 1019.69 1019.59 1019.37 1019.17 1018.96 1018.70 1018.42 1018.24 1017.98 1017.21 1016.31 1015.64
989.95 991.44 992.94 995.11 996.76 998.31 1000.09 1001.84 1003.85 1005.53 1007.39 1008.98 1009.49 1010.47 1011.70 1012.64 1013.64 1014.74 1015.35 1015.86 1016.20 1016.66 1017.02 1017.42 1017.81 1018.06 1018.75 1019.08 1019.58 1020.03 1020.07 1019.72 1019.65 1019.13 1018.76 1018.55 1018.27 1017.95 1017.75 1017.41 1016.74 1015.92 1015.44
989.85 991.48 993.42 995.43 997.46 999.11 1001.11 1002.90 1004.65 1006.53 1008.04 1008.98 1009.37 1010.61 1011.74 1012.71 1013.75 1014.57 1015.04 1015.47 1015.90 1016.50 1017.04 1017.60 1017.85 1018.33 1018.68 1019.00 1019.32 1019.58 1019.86 1019.81 1019.56 1019.19 1018.99 1018.37 1018.00 1017.56 1016.95 1016.42 1015.88 1015.30 1014.94
991.39 992.77 994.69 996.89 998.74 1000.31 1001.85 1003.59 1005.26 1006.87 1008.16 1009.03 1009.90 1011.00 1011.94 1012.95 1013.71 1014.15 1014.89 1015.46 1015.97 1016.61 1017.12 1017.69 1017.78 1018.10 1018.52 1018.73 1019.10 1019.29 1019.49 1019.51 1019.23 1019.00 1018.79 1018.43 1017.61 1016.91 1016.29 1015.69 1015.30 1014.83 1014.46
993.69 995.13 996.63 998.57 1000.48 1001.80 1003.41 1004.78 1006.36 1007.44 1008.71 1009.42 1010.52 1011.51 1012.35 1013.13 1013.68 1014.33 1014.83 1015.46 1016.09 1016.64 1017.15 1017.68 1017.93 1018.29 1018.61 1018.79 1019.02 1019.18 1018.90 1018.85 1019.00 1018.90 1018.44 1017.99 1017.31 1016.41 1015.90 1015.42 1014.96 1014.52 1014.21
995.68 996.82 998.01 999.59 1001.03 1002.65 1004.17 1005.87 1007.24 1007.99 1009.06 1010.08 1011.52 1012.30 1012.79 1013.28 1013.95 1014.63 1015.16 1015.67 1016.38 1016.89 1017.14 1017.46 1017.97 1018.53 1018.79 1018.78 1019.14 1019.28 1018.97 1018.91 1019.01 1018.72 1017.97 1017.39 1016.92 1016.27 1015.68 1015.31 1014.79 1014.38 1013.98
997.40 998.64 999.78 1000.87 1002.16 1003.69 1005.19 1006.69 1007.67 1008.10 1009.12 1010.58 1011.54 1012.27 1013.05 1013.85 1014.26 1014.90 1015.84 1016.42 1016.93 1017.28 1017.64 1018.02 1018.44 1018.83 1018.80 1018.96 1019.05 1019.08 1018.94 1018.84 1018.82 1018.48 1017.64 1017.18 1016.86 1016.50 1015.75 1015.32 1014.73 1014.34 1013.90
Thickness
5788 5786 5778 5773 5762 5758 5750 5743 5736 5730 5723 5714 5708 5705 5701 5697 5693 5688 5684 5682 5679 5677 5677 5676 5673 5671 5669 5663 5660 5658 5656 5655 5653 5647 5648 5648 5651 5648 5645 5638 5631 5625 5626
5779 5777 5772 5763 5754 5752 5745 5739 5734 5724 5717 5714 5709 5705 5702 5696 5691 5686 5681 5677 5673 5671 5669 5667 5665 5661 5660 5654 5648 5645 5644 5645 5641 5634 5630 5630 5633 5634 5625 5619 5616 5609 5604
5780 5774 5766 5759 5748 5744 5742 5739 5732 5719 5711 5709 5707 5698 5694 5691 5684 5678 5674 5669 5665 5662 5659 5658 5655 5651 5649 5645 5639 5636 5635 5631 5629 5624 5616 5614 5609 5607 5607 5602 5599 5592 5586
5785 5781 5770 5758 5747 5742 5740 5731 5724 5716 5712 5708 5701 5694 5689 5683 5680 5674 5671 5664 5658 5653 5650 5647 5644 5640 5637 5632 5631 5628 5621 5618 5613 5610 5606 5598 5591 5585 5587 5585 5581 5576 5569
5782 5778 5774 5764 5748 5740 5735 5723 5716 5714 5710 5706 5699 5692 5686 5681 5675 5670 5660 5657 5651 5646 5642 5637 5633 5630 5627 5623 5618 5613 5609 5604 5600 5595 5588 5584 5578 5574 5568 5570 5564 5557 5549
5779 5778 5777 5767 5752 5739 5731 5724 5712 5711 5705 5700 5697 5688 5685 5679 5669 5661 5654 5649 5644 5638 5633 5629 5626 5621 5617 5613 5607 5601 5597 5591 5583 5578 5574 5569 5563 5557 5551 5547 5542 5538 5534
5775 5770 5766 5760 5747 5734 5723 5712 5706 5703 5698 5693 5687 5682 5679 5669 5662 5656 5652 5646 5640 5635 5628 5622 5617 5614 5608 5600 5595 5590 5584 5576 5572 5565 5559 5553 5547 5540 5533 5527 5527 5523 5518
5771 5764 5759 5754 5742 5728 5714 5703 5695 5694 5686 5680 5675 5670 5667 5661 5657 5651 5647 5639 5633 5627 5619 5612 5606 5600 5593 5588 5583 5578 5571 5566 5560 5551 5543 5537 5530 5523 5516 5508 5501 5503 5497
5767 5759 5751 5745 5737 5721 5706 5696 5685 5678 5674 5671 5666 5663 5656 5653 5649 5643 5634 5628 5622 5615 5607 5600 5593 5587 5581 5575 5571 5564 5559 5552 5543 5536 5530 5523 5517 5508 5500 5490 5477 5466 5468
5762 5755 5741 5734 5727 5710 5695 5686 5676 5672 5668 5663 5658 5653 5648 5644 5636 5629 5622 5615 5610 5604 5596 5589 5582 5575 5569 5563 5557 5550 5545 5538 5530 5524 5517 5507 5500 5492 5482 5472 5462 5452 5437
5754 5743 5732 5727 5714 5701 5687 5674 5670 5667 5662 5656 5651 5644 5639 5631 5624 5617 5609 5604 5598 5591 5584 5578 5571 5564 5557 5550 5543 5537 5531 5524 5516 5508 5500 5492 5481 5475 5467 5459 5448 5431 5416
5745 5734 5723 5715 5707 5692 5680 5668 5662 5660 5654 5647 5639 5635 5625 5622 5614 5606 5599 5592 5587 5579 5573 5566 5559 5553 5547 5539 5531 5524 5517 5509 5502 5493 5484 5475 5467 5458 5451 5443 5435 5419 5407
5734 5723 5710 5703 5697 5689 5675 5664 5656 5653 5647 5638 5632 5623 5617 5613 5605 5596 5587 5581 5575 5569 5561 5554 5548 5542 5534 5525 5516 5509 5501 5493 5485 5477 5469 5460 5451 5445 5436 5425 5411 5399 5395
5720 5711 5701 5694 5683 5678 5671 5661 5650 5645 5639 5631 5621 5614 5609 5603 5593 5583 5576 5570 5564 5557 5550 5542 5536 5528 5519 5511 5502 5494 5483 5475 5470 5463 5454 5443 5435 5426 5411 5400 5388 5382 5378
5704 5699 5693 5685 5674 5667 5665 5656 5647 5640 5634 5624 5614 5606 5598 5590 5580 5570 5565 5560 5553 5546 5538 5530 5523 5514 5506 5497 5483 5474 5468 5462 5456 5446 5433 5425 5416 5402 5387 5378 5371 5362 5359
5691 5688 5684 5675 5664 5660 5657 5650 5641 5635 5626 5615 5605 5596 5585 5576 5568 5560 5555 5549 5542 5534 5524 5517 5509 5502 5495 5473 5464 5456 5453 5449 5443 5431 5419 5411 5401 5391 5378 5365 5355 5345 5341
5687 5682 5676 5669 5659 5655 5649 5641 5631 5621 5613 5604 5595 5584 5573 5566 5557 5552 5545 5538 5530 5521 5513 5505 5498 5491 5474 5461 5452 5444 5442 5439 5428 5417 5410 5401 5388 5376 5367 5360 5352 5343 5334
5679 5678 5672 5667 5657 5648 5639 5629 5621 5610 5602 5593 5583 5573 5564 5556 5549 5541 5533 5525 5517 5509 5503 5494 5480 5471 5464 5451 5441 5434 5433 5427 5416 5407 5397 5387 5379 5367 5358 5354 5348 5339 5330
5683 5679 5669 5661 5648 5641 5629 5620 5610 5600 5589 5580 5571 5562 5553 5545 5535 5528 5520 5513 5506 5495 5487 5478 5469 5462 5456 5441 5431 5425 5422 5415 5405 5397 5387 5373 5367 5356 5346 5344 5339 5335 5329
5683 5671 5660 5652 5642 5635 5624 5612 5601 5590 5579 5566 5558 5550 5541 5531 5524 5516 5509 5500 5492 5484 5474 5467 5460 5447 5444 5427 5420 5414 5407 5401 5393 5384 5373 5364 5357 5348 5341 5336 5333 5332 5328
5677 5669 5656 5643 5634 5624 5613 5601 5587 5575 5561 5547 5544 5538 5530 5522 5512 5501 5494 5486 5479 5470 5463 5456 5449 5441 5429 5422 5409 5398 5391 5387 5378 5372 5366 5357 5349 5343 5337 5331 5328 5328 5325
5668 5656 5641 5630 5616 5606 5592 5579 5567 5552 5541 5537 5537 5527 5518 5509 5498 5490 5482 5475 5467 5458 5450 5441 5434 5425 5416 5407 5398 5389 5378 5370 5364 5358 5351 5348 5342 5338 5335 5331 5328 5326 5321
5644 5635 5621 5606 5593 5584 5575 5563 5552 5542 5533 5526 5521 5512 5503 5494 5485 5479 5469 5461 5453 5444 5435 5426 5421 5413 5403 5397 5387 5378 5369 5360 5354 5347 5340 5335 5336 5335 5333 5331 5327 5324 5320
5614 5605 5595 5582 5569 5562 5553 5544 5534 5525 5516 5510 5501 5493 5486 5478 5471 5463 5455 5446 5438 5432 5423 5413 5406 5397 5390 5384 5376 5368 5364 5356 5347 5338 5333 5331 5330 5330 5330 5328 5326 5323 5318
5588 5582 5575 5564 5555 5544 5535 5521 5512 5508 5499 5491 5481 5473 5467 5462 5455 5446 5439 5432 5424 5416 5410 5402 5393 5382 5375 5371 5361 5355 5351 5345 5335 5330 5329 5329 5327 5327 5327 5323 5322 5319 5316
5563 5554 5549 5543 5538 5526 5514 5504 5498 5496 5488 5476 5468 5461 5452 5443 5438 5431 5421 5411 5403 5396 5389 5381 5374 5367 5361 5354 5349 5343 5337 5331 5325 5324 5325 5322 5320 5318 5320 5318 5317 5315 5313